This is the latest recevied weather packets stored in our database for station/object 9M4GEK-3. If no packets are shown the sender has not sent any weather packets the latest 10 day(s).
| Time | Temp. | Humidity | Pressure | Rain* | Wind** | Luminosity | Snow |
|---|---|---|---|---|---|---|---|
| 1777719898 | 28.33° C | 71% | 1005.5 hPa | - | - | - | - |
| 1777719092 | 28.89° C | 70% | 1005.4 hPa | - | - | - | - |
| 1777718998 | 28.89° C | 70% | 1005.4 hPa | - | - | - | - |
| 1777718098 | 29.44° C | 68% | 1005.3 hPa | - | - | - | - |
| 1777717277 | 30° C | 67% | 1005 hPa | - | - | - | - |
| 1777717197 | 30° C | 67% | 1005 hPa | - | - | - | - |
| 1777716297 | 30.56° C | 66% | 1004.9 hPa | - | - | - | - |
| 1777715429 | 30° C | 67% | 1004.8 hPa | - | - | - | - |
| 1777715396 | 30° C | 67% | 1004.8 hPa | - | - | - | - |
| 1777714583 | 30° C | 67% | 1004.8 hPa | - | - | - | - |
| 1777714496 | 30° C | 67% | 1004.8 hPa | - | - | - | - |
| 1777713596 | 30° C | 67% | 1004.8 hPa | - | - | - | - |
| 1777712693 | 29.44° C | 70% | 1004.5 hPa | - | - | - | - |
| 1777711824 | 28.33° C | 74% | 1004.7 hPa | - | - | - | - |
| 1777711793 | 28.33° C | 74% | 1004.7 hPa | - | - | - | - |
| 1777710937 | 26.67° C | 78% | 1004.9 hPa | - | - | - | - |
| 1777710892 | 26.67° C | 78% | 1004.9 hPa | - | - | - | - |
| 1777710051 | 25.56° C | 82% | 1005.6 hPa | - | - | - | - |
| 1777709992 | 25.56° C | 82% | 1005.6 hPa | - | - | - | - |
| 1777709091 | 24.44° C | 85% | 1006.2 hPa | - | - | - | - |
| 1777708268 | 26.11° C | 78% | 1006.4 hPa | - | - | - | - |
| 1777708191 | 26.11° C | 78% | 1006.4 hPa | - | - | - | - |
| 1777707340 | 33.33° C | 49% | 1005.4 hPa | - | - | - | - |
| 1777707291 | 33.33° C | 49% | 1005.4 hPa | - | - | - | - |
| 1777706422 | 38.89° C | 37% | 1005.2 hPa | - | - | - | - |
* Rain since midnight (hover to see other rain measurements)
** Current wind speed in m/s (hover to see current wind gust speed)